Bellingham, Washington, United States (98225)
Lat: 48.76N, Lon: 122.49W
Wx Zone: WAZ503
Local Info
Past Weather Observations for Sunday, October 26, 2014

NOTE: This archive is for the closest National Weather Service station to Bellingham. Information may differ from the station used for current weather conditions.

Click here for Long-term Archive

Time Weather Temperature Dewpoint Humidity Pressure Winds Precip Visibility
23:53
Overcast
Fog And Mist
43°F / 6°C 41°F / 5°C 93% 30.12 in
(1020 mb)
Calm - 5SM
22:53
Partly Cloudy
45°F / 7°C 41°F / 5°C 87% 30.12 in
(1020 mb)
SSE 3.5 mph
(SSE 6 kph)
- 10SM
22:00
Clear
Fog And Mist
43°F / 6°C 37°F / 3°C 81% 30.12 in
(1020 mb)
Calm - 3SM
21:57
Partly Cloudy
Fog And Mist
41°F / 5°C 37°F / 3°C 87% 30.12 in
(1020 mb)
Calm - 1 1/4SM
21:53
Obscured
Fog And Mist
41°F / 5°C 39°F / 4°C 93% 30.12 in
(1020 mb)
Calm - 3/4SM
21:49
Partly Cloudy
Fog And Mist
43°F / 6°C 39°F / 4°C 87% 30.12 in
(1020 mb)
Calm - 3/4SM
21:45
Partly Cloudy
Fog And Mist
43°F / 6°C 39°F / 4°C 87% 30.12 in
(1020 mb)
Calm - 1 1/2SM
20:53
Mostly Cloudy
45°F / 7°C 43°F / 6°C 93% 30.09 in
(1019 mb)
SSE 3.5 mph
(SSE 6 kph)
- 10SM
19:53
Clear
46°F / 8°C 43°F / 6°C 87% 30.09 in
(1019 mb)
Calm - 10SM
18:53
Clear
46°F / 8°C 43°F / 6°C 87% 30.06 in
(1018 mb)
Calm - 10SM
17:53
Clear
46°F / 8°C 43°F / 6°C 87% 30.06 in
(1018 mb)
SSE 3.5 mph
(SSE 6 kph)
- 10SM
16:53
Clear
46°F / 8°C 45°F / 7°C 93% 30.04 in
(1017 mb)
Calm - 10SM
15:53
Partly Cloudy
52°F / 11°C 46°F / 8°C 82% 30.04 in
(1017 mb)
Calm - 10SM
14:53
Partly Cloudy
52°F / 11°C 46°F / 8°C 82% 30.01 in
(1016 mb)
Variable 3.5 mph
(Variable 6 kph)
- 10SM
14:51
Partly Cloudy
52°F / 11°C 45°F / 7°C 77% 30.01 in
(1016 mb)
Calm - 10SM
14:44
Mostly Cloudy
52°F / 11°C 45°F / 7°C 77% 30.01 in
(1016 mb)
SW 3.5 mph
(SW 6 kph)
- 10SM
13:53
Mostly Cloudy
50°F / 10°C 45°F / 7°C 82% 30.01 in
(1016 mb)
Calm 0.00 in
(0.00 mm)
10SM
13:11
Overcast
50°F / 10°C 45°F / 7°C 82% 30.01 in
(1016 mb)
Calm 0.00 in
(0.00 mm)
10SM
12:53
Overcast
Light Rain
48°F / 9°C 46°F / 8°C 94% 30.01 in
(1016 mb)
Calm 0.09 in
(2.29 mm)
10SM
12:00
Overcast
Rain
48°F / 9°C 45°F / 7°C 87% 29.98 in
(1015 mb)
W 3.5 mph
(W 6 kph)
0.02 in
(0.51 mm)
4SM
11:53
Overcast
Light Rain
48°F / 9°C 45°F / 7°C 87% 29.98 in
(1015 mb)
W 4.6 mph
(W 7 kph)
0.18 in
(4.57 mm)
3SM
11:22
Overcast
Rain
48°F / 9°C 45°F / 7°C 87% 29.98 in
(1015 mb)
Variable 5.8 mph
(Variable 9 kph)
0.11 in
(2.79 mm)
3SM
11:15
Overcast
Heavy Rain
48°F / 9°C 45°F / 7°C 87% 29.98 in
(1015 mb)
SSW 6.9 mph
(SSW 11 kph)
0.08 in
(2.03 mm)
2SM
10:53
Overcast
Light Rain
50°F / 10°C 46°F / 8°C 88% 29.95 in
(1014 mb)
Calm 0.01 in
(0.25 mm)
4SM
09:53
Overcast
52°F / 11°C 46°F / 8°C 82% 29.92 in
(1013 mb)
SSE 11.5 mph
(SSE 19 kph)
0.01 in
(0.25 mm)
10SM
08:53
Overcast
Light Rain
50°F / 10°C 46°F / 8°C 88% 29.92 in
(1013 mb)
SSE 8.1 mph
(SSE 13 kph)
0.05 in
(1.27 mm)
10SM
07:53
Overcast
Light Rain
50°F / 10°C 46°F / 8°C 88% 29.89 in
(1012 mb)
S 5.8 mph
(S 9 kph)
0.03 in
(0.76 mm)
7SM
06:53
Overcast
Light Rain
50°F / 10°C 46°F / 8°C 88% 29.86 in
(1011 mb)
SSE 9.2 mph
(SSE 15 kph)
0.07 in
(1.78 mm)
5SM
05:53
Overcast
Light Rain
52°F / 11°C 45°F / 7°C 77% 29.83 in
(1010 mb)
S 8.1 mph
(S 13 kph)
0.02 in
(0.51 mm)
10SM
05:06
Overcast
Light Rain
52°F / 11°C 45°F / 7°C 77% 29.83 in
(1010 mb)
SSE 11.5 mph
(SSE 19 kph)
0.01 in
(0.25 mm)
8SM
04:53
Overcast
Light Rain
52°F / 11°C 46°F / 8°C 82% 29.83 in
(1010 mb)
Variable 6.9 mph
(Variable 11 kph)
0.12 in
(3.05 mm)
6SM
04:48
Overcast
Rain
52°F / 11°C 46°F / 8°C 82% 29.83 in
(1010 mb)
S 8.1 mph
(S 13 kph)
0.11 in
(2.79 mm)
5SM
04:37
Overcast
Rain
52°F / 11°C 46°F / 8°C 82% 29.83 in
(1010 mb)
S 9.2 mph
(S 15 kph)
0.09 in
(2.29 mm)
4SM
04:27
Overcast
Light Rain
52°F / 11°C 45°F / 7°C 77% 29.8 in
(1009 mb)
S 10.4 mph
(S 17 kph)
0.05 in
(1.27 mm)
5SM
03:53
Overcast
Light Rain
52°F / 11°C 45°F / 7°C 77% 29.8 in
(1009 mb)
SSE 8.1 mph
(SSE 13 kph)
0.01 in
(0.25 mm)
10SM
02:53
Mostly Cloudy
54°F / 12°C 43°F / 6°C 67% 29.77 in
(1008 mb)
S 8.1 mph
(S 13 kph)
- 10SM
01:53
Partly Cloudy
54°F / 12°C 43°F / 6°C 67% 29.77 in
(1008 mb)
S 6.9 mph
(S 11 kph)
- 10SM
00:53
Partly Cloudy
52°F / 11°C 45°F / 7°C 77% 29.74 in
(1007 mb)
S 8.1 mph
(S 13 kph)
- 10SM
Time Weather Temperature Dewpoint Humidity Pressure Winds Precip Visibility


Weather for websites

WeatherForYou.com, LLC is not responsible for any damages or problems caused by this service. Current weather conditions are obtained from the closest station including government and personal stations which may have varying degrees of accuracy. Weather forecasts are derived from the NOAA NDFD. Like all things, this site belongs to Jesus Christ... He just trusts me to maintain it. If you have any questions or comments email webmaster@weatherforyou.com

Copyright © 2014, WeatherForYou.com LLC. All rights reserved.